Weather in Putrajaya

Malaysia     2°54′46″N   101°40′56″E
temp.,
°C
wind,
m/s
gust,
m/s
humid.,
%
clouds,
%
prec.,
mm/h
press.,
hPa
HPBL,
m
28 september, tue
tue2823:00+25sw1186100 2.4 101077
02:00+25n1185100 2.6 100949
05:00+24nw118798 0.0 100736
08:00+25nnw118890 0.0 1009124
11:00+30wnw1267100 0.0 1010914
14:00+30w2267100 2.6 10071021
17:00+28wnw2378100 5.8 1005416
20:00+25sw2396100 13.8 1008144
29 september, wed
wed2923:00+25wnw1193100 3.2 101070
02:00+25n1192100 4.3 100937
05:00+24nnw1191100 0.6 100719
08:00+25nne118951 0.6 100988
11:00+30ssw116831 0.1 1010806
14:00+30ssw226534 2.0 10081145
17:00+29wsw237596 6.3 1006744
20:00+26nw1288100 8.0 100832
30 september, thu
thu3023:00+25sw0091100 0.2 101014
02:00+24se1194100 2.1 100914
05:00+24sse1193100 1.5 100812
08:00+25ese1189100 1.6 101082
11:00+29sse246889 0.1 1011996
14:00+32s4659100 0.3 10071402
17:00+29s4472100 1.4 1006611
20:00+26sse258798 4.4 1009107
1 october, fri
fri123:00+25se2593100 4.0 1011203
02:00+24s3592100 6.4 1010178
05:00+23s389295 2.6 1010497
08:00+23e1293100 2.7 1011130
11:00+26ese237797 0.0 1012431
14:00+27sse237196 0.0 1009513
17:00+27sse3470100 0.0 1008732
20:00+25se2381100 0.0 1010163
2 october, sat
sat223:00+25se2381100 0.0 1012135
02:00+24ese2482100 0.0 1010126
05:00+24se2487100 0.0 1009135
08:00+24ese1186100 0.0 101056
11:00+27sse1174100 0.0 1011449
14:00+26ne0175100 0.0 1009252
17:00+26se1279100 0.0 1008185
20:00+25ese1181100 0.0 101026